Location: Poprad
(49.0500°N, 20.3000°E)
Time: 18:51:20
(UTC+02:00)

RS-44 - Pass Details

Date: 20 April 2024
Orbit: 1174 x 1511 km, 82.5° (Epoch: 20 May)

Event Time Altitude Azimuth Distance (km) Brightness Sun altitude
Rises 21:24:11 0° 206° (SSW) 4,636 ? -15.7°
Reaches altitude 10° 21:27:13 10° 211° (SSW) 3,647 ? -16.1°
Maximum altitude 21:35:48 53° 287° (WNW) 1,741 ? -17.1°
Drops below altitude 10° 21:44:00 10° 4° (N) 3,483 ? -18.1°
Sets 21:46:52 0° 9° (N) 4,416 ? -18.4°
